DW9145 Weather Reports


time (UTC)temp
C
wind
direction
speed
KPH
gust
KPH
rain 1hr
cm
rain 24hr
cm
rain mn
cm
humidity
%
barometer
mb
20260503213004 20 327 4.8 22.5 0.00 0.00 0.00 20 1003.2
20260503212504 20 306 9.7 24.1 0.00 0.00 0.00 19 1003.5
20260503212004 21 45 8.0 14.5 0.00 0.00 0.00 21 1003.5
20260503211505 21 265 4.8 16.1 0.00 0.00 0.00 20 1003.5
20260503211005 21 347 4.8 16.1 0.00 0.00 0.00 21 1003.3
20260503210504 21 338 1.6 19.3 0.00 0.00 0.00 19 1003.4
20260503210005 21 318 3.2 14.5 0.00 0.00 0.00 20 1003.4
20260503205504 21 355 9.7 19.3 0.00 0.00 0.00 19 1003.4
20260503205005 21 40 3.2 11.3 0.00 0.00 0.00 19 1003.4
20260503204504 21 31 3.2 19.3 0.00 0.00 0.00 21 1003.6
20260503204004 21 30 3.2 14.5 0.00 0.00 0.00 21 1003.6
20260503203505 20 16 4.8 16.1 0.00 0.00 0.00 21 1003.6
20260503203004 20 9 9.7 22.5 0.00 0.00 0.00 23 1003.6
20260503202505 20 351 8.0 19.3 0.00 0.00 0.00 22 1003.5
20260503202005 20 235 3.2 11.3 0.00 0.00 0.00 23 1003.7
20260503201505 21 275 3.2 19.3 0.00 0.00 0.00 24 1003.6
20260503200504 21 286 4.8 20.9 0.00 0.00 0.00 26 1003.6
20260503200004 21 294 9.7 19.3 0.00 0.00 0.00 27 1003.5
20260503195504 21 345 8.0 19.3 0.00 0.00 0.00 28 1003.5
20260503195005 21 3 8.0 12.9 0.00 0.00 0.00 27 1003.6
20260503194004 20 107 4.8 19.3 0.00 0.00 0.00 25 1003.6
20260503193504 20 338 4.8 14.5 0.00 0.00 0.00 26 1003.8
20260503193004 21 353 8.0 14.5 0.00 0.00 0.00 26 1003.9
20260503192505 20 342 8.0 20.9 0.00 0.00 0.00 26 1003.9
20260503191504 20 323 8.0 14.5 0.00 0.00 0.00 30 1003.9
20260503191005 20 327 8.0 16.1 0.00 0.00 0.00 31 1004.0
20260503190505 20 235 8.0 19.3 0.00 0.00 0.00 30 1004.2
20260503190005 20 310 9.7 19.3 0.00 0.00 0.00 28 1004.0
20260503185504 20 338 4.8 20.9 0.00 0.00 0.00 28 1004.1
20260503185004 20 284 3.2 20.9 0.00 0.00 0.00 30 1004.1
20260503184504 20 246 8.0 19.3 0.00 0.00 0.00 34 1004.1
20260503184005 20 21 3.2 19.3 0.00 0.00 0.00 33 1004.1
20260503183004 20 261 4.8 16.1 0.00 0.00 0.00 32 1004.2
20260503182505 20 271 4.8 12.9 0.00 0.00 0.00 32 1004.3
20260503182005 20 357 8.0 19.3 0.00 0.00 0.00 29 1004.4
20260503181505 20 41 8.0 19.3 0.00 0.00 0.00 31 1004.4
20260503181005 20 30 9.7 20.9 0.00 0.00 0.00 33 1004.5
20260503180504 20 9 4.8 19.3 0.00 0.00 0.00 35 1004.5
20260503180005 20 355 8.0 19.3 0.00 0.00 0.00 35 1004.5
20260503175504 20 310 8.0 25.7 0.00 0.00 0.00 31 1004.4
20260503175005 20 327 4.8 19.3 0.00 0.00 0.00 34 1004.4
20260503174505 20 204 3.2 12.9 0.00 0.00 0.00 33 1004.6
20260503174005 20 358 9.7 19.3 0.00 0.00 0.00 34 1004.5
20260503173504 20 14 3.2 9.7 0.00 0.00 0.00 37 1004.6
20260503173004 20 307 3.2 14.5 0.00 0.00 0.00 37 1004.6
20260503172004 19 313 3.2 16.1 0.00 0.00 0.00 42 1004.7
20260503171505 18 353 8.0 20.9 0.00 0.00 0.00 38 1004.7
20260503170504 19 331 4.8 19.3 0.00 0.00 0.00 40 1004.8
20260503151004 16 250 3.2 11.3 0.00 0.00 0.00 51 1005.1
20260503150505 16 358 1.6 9.7 0.00 0.00 0.00 52 1005.2
20260503131004 12 247 6.4 11.3 0.00 0.00 0.00 62 1005.3
20260503130504 12 229 1.6 11.3 0.00 0.00 0.00 63 1005.3
20260503110504 8 178 0.0 0.0 0.00 0.00 0.00 80 1005.0
20260503090504 8 175 0.0 0.0 0.00 0.00 0.00 79 1006.0
20260503081504 9 217 0.0 0.0 0.00 0.00 0.00 79 1006.3
20260503081004 9 217 0.0 0.0 0.00 0.00 0.00 78 1006.4
20260503080504 9 217 0.0 0.0 0.00 0.00 0.00 78 1006.3
20260503072504 11 217 0.0 0.0 0.00 0.00 0.00 75 1007.1
20260503072004 11 217 0.0 0.0 0.00 0.00 0.00 75 1007.3
20260503071504 11 217 0.0 0.0 0.00 0.00 0.00 75 1007.5
20260503071005 11 217 0.0 0.0 0.00 0.00 0.00 75 1007.8
20260503070504 11 217 0.0 0.0 0.00 0.00 0.00 73 1008.0
20260503055005 13 227 0.0 3.2 0.00 0.00 0.00 58 1008.3
20260503054504 13 226 0.0 3.2 0.00 0.00 0.00 54 1008.5
20260503054004 13 227 1.6 4.8 0.00 0.00 0.00 55 1008.5
20260503053504 13 256 0.0 1.6 0.00 0.00 0.00 54 1008.5
20260503053004 13 255 0.0 4.8 0.00 0.00 0.00 55 1008.6
20260503052504 13 246 1.6 9.7 0.00 0.00 0.00 55 1008.6
20260503052004 13 250 0.0 1.6 0.00 0.00 0.00 54 1008.6
20260503051504 13 252 0.0 1.6 0.00 0.00 0.00 55 1008.6
20260503045504 12 238 0.0 0.0 0.00 0.00 0.00 61 1008.7
20260503045004 12 238 0.0 1.6 0.00 0.00 0.00 62 1008.6
20260503044503 12 238 0.0 4.8 0.00 0.00 0.00 62 1008.6
20260503043504 12 228 0.0 0.0 0.00 0.00 0.00 59 1008.6
20260503043004 12 228 0.0 0.0 0.00 0.00 0.00 58 1008.7
20260503042504 13 228 0.0 0.0 0.00 0.00 0.00 56 1008.7
20260503042004 13 228 0.0 0.0 0.00 0.00 0.00 55 1008.7
20260503041504 13 228 0.0 0.0 0.00 0.00 0.00 56 1008.7
20260503041004 13 228 0.0 0.0 0.00 0.00 0.00 54 1008.8
20260503040504 13 228 0.0 0.0 0.00 0.00 0.00 52 1008.8
20260503040004 14 228 0.0 0.0 0.00 0.00 0.00 52 1008.7
20260503035504 14 228 0.0 1.6 0.00 0.00 0.00 50 1008.9
20260503035004 14 228 0.0 4.8 0.00 0.00 0.00 50 1009.0
20260503034504 14 251 0.0 4.8 0.00 0.00 0.00 50 1009.1
20260503034004 14 248 8.0 14.5 0.00 0.00 0.00 49 1009.1
20260503033504 14 228 3.2 9.7 0.00 0.00 0.00 49 1009.2
20260503032503 14 266 1.6 4.8 0.00 0.00 0.00 49 1009.3
20260503032004 14 346 3.2 8.0 0.00 0.00 0.00 49 1009.3
20260503031003 14 210 8.0 19.3 0.00 0.00 0.00 49 1009.5
20260503030505 13 224 3.2 14.5 0.00 0.00 0.00 49 1009.4
20260503025505 13 241 3.2 14.5 0.00 0.00 0.00 50 1009.6
20260503025004 13 183 0.0 3.2 0.00 0.00 0.00 51 1009.6
20260503024504 13 257 0.0 3.2 0.00 0.00 0.00 49 1009.6
20260503023504 13 261 1.6 4.8 0.00 0.00 0.00 48 1009.6
20260503023005 12 234 1.6 4.8 0.00 0.00 0.00 51 1009.7
20260503022504 12 253 1.6 4.8 0.00 0.00 0.00 52 1009.6
20260503022004 12 254 0.0 1.6 0.00 0.00 0.00 52 1009.8
20260503021005 12 254 0.0 0.0 0.00 0.00 0.00 49 1009.5
20260503020505 13 254 0.0 1.6 0.00 0.00 0.00 47 1009.5
20260503020005 13 260 0.0 1.6 0.00 0.00 0.00 49 1009.5
20260503015505 12 265 0.0 1.6 0.00 0.00 0.00 48 1009.5
20260503015005 12 266 1.6 4.8 0.00 0.00 0.00 46 1009.5
20260503014505 12 233 0.0 1.6 0.00 0.00 0.00 49 1009.5
20260503014005 13 232 0.0 3.2 0.00 0.00 0.00 48 1009.6
20260503013505 13 237 1.6 4.8 0.00 0.00 0.00 47 1009.5
20260503013005 13 237 1.6 4.8 0.00 0.00 0.00 45 1009.6
20260503012505 13 228 0.0 3.2 0.00 0.00 0.00 46 1009.6
20260503012005 13 227 0.0 0.0 0.00 0.00 0.00 46 1009.6
20260503011505 13 227 0.0 1.6 0.00 0.00 0.00 45 1009.6
20260503011006 13 228 0.0 4.8 0.00 0.00 0.00 43 1009.6
20260503005005 15 251 0.0 1.6 0.00 0.00 0.00 40 1009.8
20260503004506 15 252 1.6 4.8 0.00 0.00 0.00 40 1009.8
20260503004005 15 259 1.6 4.8 0.00 0.00 0.00 41 1009.8
20260503003505 15 226 3.2 4.8 0.00 0.00 0.00 39 1009.9
20260503003005 15 241 1.6 4.8 0.00 0.00 0.00 40 1009.9
20260503002505 15 259 3.2 8.0 0.00 0.00 0.00 38 1010.2
20260503002005 15 271 1.6 4.8 0.00 0.00 0.00 39 1010.2
20260503001505 15 257 0.0 4.8 0.00 0.00 0.00 39 1010.1
20260503001005 15 261 1.6 4.8 0.00 0.00 0.00 38 1010.2
20260503000505 15 256 1.6 4.8 0.00 0.00 0.00 39 1010.3
20260503000005 15 261 3.2 8.0 0.00 0.00 0.00 39 1010.3
20260502235505 15 230 4.8 11.3 0.00 0.00 0.00 37 1010.4
20260502235006 15 244 1.6 8.0 0.00 0.00 0.00 38 1010.5
20260502234505 15 231 3.2 4.8 0.00 0.00 0.00 36 1010.5
20260502234005 15 293 6.4 11.3 0.00 0.00 0.00 36 1010.5
20260502233505 15 264 6.4 12.9 0.00 0.00 0.00 36 1010.5
20260502233005 15 271 3.2 8.0 0.00 0.00 0.00 38 1010.5
20260502232504 15 264 3.2 8.0 0.00 0.00 0.00 37 1010.7
20260502231505 15 241 4.8 12.9 0.00 0.00 0.00 37 1010.8
20260502231005 15 235 4.8 11.3 0.00 0.00 0.00 36 1010.9
20260502230505 15 242 4.8 11.3 0.00 0.00 0.00 36 1010.9
20260502230005 15 243 4.8 11.3 0.00 0.00 0.00 37 1011.0
20260502225005 16 234 4.8 8.0 0.00 0.00 0.00 35 1011.0
20260502224505 16 267 3.2 8.0 0.00 0.00 0.00 36 1011.0
20260502224005 16 263 3.2 14.5 0.00 0.00 0.00 35 1011.2
20260502223005 16 230 4.8 16.1 0.00 0.00 0.00 34 1011.2
20260502222505 17 237 9.7 16.1 0.00 0.00 0.00 33 1011.2
20260502221505 16 226 4.8 12.9 0.00 0.00 0.00 35 1011.2
20260502221005 16 256 4.8 14.5 0.00 0.00 0.00 34 1011.3
20260502220505 16 225 4.8 11.3 0.00 0.00 0.00 35 1011.4
20260502220005 16 277 6.4 14.5 0.00 0.00 0.00 34 1011.3
20260502215506 16 208 3.2 11.3 0.00 0.00 0.00 35 1011.4
20260502215005 16 236 3.2 12.9 0.00 0.00 0.00 33 1011.4
20260502214505 16 225 8.0 20.9 0.00 0.00 0.00 33 1011.6
20260502214005 16 242 4.8 19.3 0.00 0.00 0.00 32 1011.6